Powrót do katalogu

STARLINK-30309

AktywnyŁącznośćVLEO
NORAD 57632·PAYLOAD·🇺🇸 United States

Wystrzelony Aug 17, 2023 z Cape Canaveral Space Force Station

Loading…

Następne Przeloty (najbliższe 24 godziny)

TLE

ŚwieżeSource: CelesTrak SupGP

Epoka: Sep 15, 2026, 02:59 UTC

1 57632C 23122A   26258.12479167  .00007391  00000+0  26760-3 0  2584
2 57632  43.0019 102.8385 0001946 269.0134 201.9165 15.27585185    16

Śledź STARLINK-30309 w czasie rzeczywistym z AllMySat

Download on the App Store